Location: Austin
(30.3000°N, 97.7500°W)
Time: 03:00:11
(UTC-06:00)

KM-V1 - Pass Details

Date: 20 November 2023
Orbit: 238 x 2458 km, 31.1° (Epoch: 04 December)

Event Time Altitude Azimuth Distance (km) Brightness Sun altitude
Rises 18:09:08 0° 265° (W) 1,798 8.9 -8.3°
Reaches altitude 10° 18:10:57 10° 266° (W) 967 7.1 -8.7°
Maximum altitude 18:12:58 79° 355° (N) 249 2.5 -9.1°
Enters shadow 18:14:36 16° 80° (E) 805 4.5 -9.4°
